EDUZ Weather Reports


time (UTC)temp
C
wind
direction
speed
KPH
gust
KPH
rain 1hr
cm
rain 24hr
cm
rain mn
cm
humidity
%
barometer
mb
20260902062603 13 191 3.2 4.8 0.00 0.56 0.03 95 1020.0
20260902061603 13 176 4.8 8.0 0.00 0.56 0.03 95 1020.0
20260902060103 12 164 3.2 3.2 0.00 0.56 0.03 96 1020.0
20260902053903 12 226 0.0 0.0 0.00 0.56 0.03 95 1020.3
20260902053403 12 226 0.0 0.0 0.00 0.56 0.03 95 1020.3
20260902043703 12 226 0.0 0.0 0.00 0.56 0.03 95 1020.3
20260902042704 11 226 1.6 3.2 0.00 0.56 0.03 95 1020.0
20260902041203 11 227 1.6 3.2 0.00 0.56 0.03 95 1020.3
20260902040104 11 226 4.8 4.8 0.00 0.56 0.03 95 1020.7
20260902035103 11 241 4.8 4.8 0.00 0.56 0.03 95 1020.3
20260902034004 11 254 3.2 3.2 0.00 0.56 0.03 95 1020.0
20260902033404 11 256 4.8 8.0 0.00 0.56 0.03 95 1020.0
20260902032903 11 255 4.8 4.8 0.00 0.56 0.03 95 1020.0
20260902031903 11 215 1.6 1.6 0.00 0.56 0.03 95 1020.0
20260902030404 11 214 3.2 3.2 0.00 0.56 0.03 95 1019.6
20260902025903 11 214 1.6 3.2 0.00 0.56 0.03 94 1019.6
20260902022703 12 221 3.2 3.2 0.03 0.56 0.03 94 1019.6
20260902022104 12 223 3.2 3.2 0.03 0.56 0.03 94 1019.6
20260902021604 12 225 1.6 3.2 0.03 0.56 0.03 94 1019.6
20260902021103 12 225 1.6 3.2 0.03 0.56 0.03 94 1019.6
20260902015004 12 225 0.0 1.6 0.03 0.56 0.03 93 1019.6
20260902013903 12 227 1.6 3.2 0.03 0.56 0.03 92 1020.0
20260902010604 13 251 4.8 8.0 0.00 0.53 0.00 90 1019.6
20260902001004 13 236 4.8 8.0 0.00 0.53 0.00 90 1019.6
20260901233704 13 244 3.2 3.2 0.00 0.53 0.00 89 1019.6
20260901233203 13 239 3.2 4.8 0.00 0.53 0.00 89 1019.3
20260901232703 13 237 4.8 4.8 0.00 0.53 0.00 89 1019.3
20260901232103 13 241 4.8 4.8 0.00 0.53 0.00 88 1019.6
20260901225903 15 259 4.8 8.0 0.00 0.53 0.00 86 1019.6
20260901224203 15 265 8.0 9.7 0.00 0.53 0.00 86 1019.3
20260901222703 15 253 4.8 8.0 0.00 0.53 0.00 86 1019.6
20260901221103 15 259 8.0 9.7 0.00 0.53 0.00 86 1019.6
20260901214504 15 264 3.2 3.2 0.00 0.53 0.53 89 1019.3
20260901214005 15 234 6.4 8.0 0.00 0.53 0.53 90 1019.3
20260901210703 16 236 4.8 8.0 0.00 0.53 0.53 86 1019.3
20260901205703 16 226 4.8 8.0 0.00 0.53 0.53 86 1019.3
20260901205203 16 233 4.8 4.8 0.00 0.53 0.53 84 1019.3
20260901204006 16 260 9.7 11.3 0.00 0.53 0.53 80 1019.0
20260901203506 16 273 8.0 9.7 0.00 0.53 0.53 80 1019.3
20260901201903 16 268 8.0 11.3 0.00 0.53 0.53 80 1019.0
20260901201403 16 258 6.4 11.3 0.00 0.53 0.53 81 1019.0
20260901200805 16 263 6.4 9.7 0.00 0.53 0.53 82 1019.0
20260901200303 16 255 8.0 9.7 0.00 0.53 0.53 83 1019.0
20260901195804 16 252 6.4 9.7 0.00 0.53 0.53 82 1019.0
20260901195306 16 257 6.4 9.7 0.00 0.53 0.53 81 1019.0
20260901194805 17 251 6.4 12.9 0.00 0.53 0.53 81 1019.0
20260901194304 17 260 6.4 9.7 0.00 0.53 0.53 80 1019.0
20260901193804 17 263 8.0 9.7 0.00 0.53 0.53 82 1019.0
20260901193305 17 259 4.8 8.0 0.00 0.53 0.53 82 1019.0
20260901192803 17 254 8.0 9.7 0.00 0.53 0.53 81 1019.0
20260901192306 17 252 9.7 9.7 0.00 0.53 0.53 81 1019.0
20260901191805 17 259 6.4 8.0 0.00 0.53 0.53 81 1019.0
20260901191304 17 266 4.8 11.3 0.00 0.53 0.53 80 1019.0
20260901185706 16 259 6.4 11.3 0.00 0.53 0.53 85 1018.6
20260901185203 16 255 6.4 9.7 0.00 0.53 0.53 88 1018.6
20260901184703 16 252 4.8 8.0 0.00 0.53 0.53 88 1018.6
20260901183703 16 234 6.4 8.0 0.00 0.53 0.53 88 1018.6
20260901180403 16 232 4.8 4.8 0.15 0.53 0.53 88 1018.3
20260901175305 16 237 4.8 4.8 0.41 0.66 0.53 86 1017.9
20260901174204 16 253 9.7 14.5 0.53 0.66 0.53 84 1018.3
20260901171504 16 231 8.0 11.3 0.53 0.66 0.53 86 1018.3
20260901164403 21 290 22.5 25.7 0.00 0.13 0.00 55 1017.3
20260901163403 22 295 14.5 17.7 0.00 0.13 0.00 53 1016.9
20260901162403 22 274 12.9 16.1 0.00 0.13 0.00 52 1017.3
20260901161303 22 280 14.5 14.5 0.00 0.13 0.00 51 1016.9
20260901160803 22 273 12.9 27.4 0.00 0.13 0.00 50 1016.9
20260901160304 23 277 11.3 16.1 0.00 0.13 0.00 49 1016.9
20260901155705 22 264 14.5 14.5 0.00 0.13 0.00 49 1016.9
20260901154703 22 274 20.9 24.1 0.00 0.13 0.00 48 1016.9
20260901153105 23 266 11.3 17.7 0.00 0.13 0.00 48 1016.9
20260901150903 23 280 12.9 16.1 0.00 0.13 0.00 49 1016.6
20260901150404 22 294 11.3 22.5 0.00 0.13 0.00 50 1016.9
20260901145306 23 280 16.1 17.7 0.00 0.38 0.00 47 1016.9
20260901144804 22 281 11.3 20.9 0.00 0.38 0.00 49 1016.9
20260901143803 23 258 16.1 20.9 0.00 0.38 0.00 48 1016.9
20260901142104 23 252 16.1 25.7 0.00 0.38 0.00 48 1016.6
20260901135503 23 259 11.3 20.9 0.00 0.38 0.00 49 1016.9
20260901133403 23 260 14.5 27.4 0.00 0.38 0.00 47 1016.6
20260901131803 22 293 11.3 17.7 0.00 0.38 0.00 50 1017.3
20260901125803 22 275 16.1 22.5 0.00 0.38 0.00 54 1017.3
20260901125204 22 299 17.7 24.1 0.00 0.38 0.00 53 1017.3
20260901124605 22 259 19.3 22.5 0.00 0.38 0.00 53 1017.3
20260901122904 22 286 25.7 27.4 0.00 0.38 0.00 53 1017.3
20260901120803 21 263 9.7 17.7 0.00 0.38 0.00 59 1017.3
20260901120205 22 264 19.3 24.1 0.00 0.38 0.00 56 1017.6
20260901115604 21 283 20.9 27.4 0.00 0.38 0.00 59 1017.6
20260901110603 20 278 11.3 27.4 0.00 0.38 0.00 63 1017.3
20260901110004 20 273 14.5 24.1 0.00 0.38 0.00 63 1017.6
20260901103803 20 259 14.5 17.7 0.00 0.38 0.00 64 1017.6
20260901103204 20 264 12.9 20.9 0.00 0.38 0.00 67 1017.3
20260901102203 20 280 25.7 32.2 0.00 0.38 0.00 65 1017.3
20260901100604 20 249 11.3 16.1 0.00 0.38 0.00 68 1017.6
20260901095104 20 269 11.3 17.7 0.00 0.38 0.00 70 1017.6
20260901094103 20 289 17.7 20.9 0.00 0.38 0.00 69 1017.6
20260901093103 18 297 14.5 17.7 0.00 0.38 0.00 73 1017.6
20260901085403 19 258 22.5 29.0 0.00 0.38 0.00 73 1017.3
20260901083803 18 276 11.3 16.1 0.00 0.38 0.00 72 1017.3
20260901082604 18 273 14.5 22.5 0.00 0.38 0.00 72 1016.9
20260901080504 17 261 16.1 20.9 0.00 0.38 0.00 75 1017.3
20260901073805 17 234 17.7 20.9 0.00 0.38 0.00 76 1017.3
20260901072204 17 257 12.9 14.5 0.00 0.38 0.00 77 1016.9
20260901070203 17 233 11.3 14.5 0.00 0.38 0.00 79 1016.9
20260901064703 16 236 9.7 16.1 0.00 0.38 0.00 81 1017.3
20260901063703 16 255 14.5 20.9 0.00 0.38 0.00 81 1016.9